Location: Buch
(50.1863°N, 11.0141°E)
Time: 04:07:27
(UTC+00:00)

Daily predictions for brighter satellites

Satellite Brightness Start Highest point End
(mag) Time Altitude Azimuth Time Altitude Azimuth Time Altitude Azimuth
CENTAUR R/B 4.4 02:29:13 29° NNE 02:29:13 29° NNE 02:35:05 10° ENE
Cosmos 2227 Rocket 4.4 02:52:36 20° ESE 02:52:36 20° ESE 02:54:27 10° ESE
Lacrosse 5 rocket 3.7 03:35:14 25° ENE 03:35:14 25° ENE 03:37:11 10° ENE
Cosmos 1943 Rocket 4.5 03:45:29 13° N 03:45:29 13° N 03:46:15 10° N
USA 229 DEB 4.3 03:43:52 45° N 03:43:52 45° N 03:49:23 10° NE
USA 229 4.3 03:43:58 45° N 03:43:58 45° N 03:49:29 10° NE
NOSS 3-1 (A) 3.9 03:49:58 50° N 03:49:58 50° N 03:55:21 10° NE
Cosmos 2369 Rocket 4.4 03:52:45 14° N 03:52:45 14° N 03:53:54 10° N
Cosmos 1697 Rocket 4.5 03:47:42 10° SSE 03:52:26 29° ESE 03:57:11 10° NE
ATLAS 3B R/B 3.9 03:50:54 28° N 03:52:41 32° NNE 03:58:38 10° E
NOSS 3-2 (A) 4.4 03:55:57 39° NNW 03:58:36 58° NE 04:06:39 10° ESE
USA 215 3.2 03:57:36 10° SE 04:03:57 61° SW 04:03:57 61° SW
Cosmos 2074 Rocket 3.9 04:00:29 10° N 04:06:48 90° E 04:13:02 10° S
Cosmos 2082 3.7 04:07:05 72° N 04:07:36 79° ENE 04:13:18 10° SSE
CZ-2C R/B 4.1 04:09:55 10° N 04:11:37 22° N 04:11:37 22° N
Meteor 2-15 4.3 04:19:45 66° W 04:20:02 67° WNW 04:26:12 10° N
CENTAUR R/B 3.7 04:16:25 27° NNW 04:20:33 51° NNE 04:28:50 10° ESE
Cosmos 2297 Rocket 2.9 04:23:30 38° SSW 04:23:30 38° SSW 04:27:13 10° S
Cosmos 1470 3.5 04:19:51 10° S 04:23:42 52° E 04:27:36 10° NNE
APEX 4.4 04:27:03 37° NNE 04:27:03 37° NNE 04:29:47 10° NNE
Cosmos 2227 Rocket 2.7 04:34:29 41° SW 04:34:29 41° SW 04:38:43 10° S
USA 238 DEB 3.8 04:29:55 34° NW 04:33:24 81° NE 04:40:49 10° SE
USA 238 3.8 04:30:01 34° NW 04:33:30 80° NE 04:40:55 10° SE
ALOS 2.6 04:29:17 10° NNE 04:33:57 64° ESE 04:38:34 10° S
EXPRESS MD2 4.4 04:36:30 29° SE 04:36:30 29° SE 04:38:13 10° E
ADEOS Rocket 3.9 04:32:10 10° SE 04:37:18 43° ENE 04:42:36 10° N
Cosmos 2341 Rocket 4.4 04:34:56 10° N 04:41:12 63° ENE 04:47:22 10° SSE
COSMO-SKYMED 1 3.1 04:38:08 10° S 04:41:17 44° SSW 04:41:17 44° SSW
Cosmos 2263 Rocket 3.4 04:39:11 15° NNW 04:43:33 39° NE 04:48:50 10° ESE
Cosmos 2278 4.3 04:45:25 10° S 04:51:01 59° ESE 04:56:38 10° NE
SL-4 R/B 1.6 04:51:23 81° SSE 04:51:23 81° SSE 04:54:44 10° ESE
STARLINK-43 3.4 04:54:31 62° SSW 04:54:59 72° SSE 04:58:42 10° ENE
Cosmos 2327 Rocket 4.5 04:49:54 10° NNW 04:56:05 58° W 05:02:08 10° S
BREEZE M DEB (TANK) 4.4 04:46:47 27° W 04:57:29 87° S 05:02:41 10° E
Cosmos 1656 3.6 04:55:44 30° SW 04:58:23 61° WNW 05:03:51 10° NNE
Cosmos 2369 3.7 04:52:40 10° SSW 04:58:25 86° ESE 05:04:12 10° NNE
NOSS 7 (D) 4.4 04:58:49 58° NE 04:58:53 58° NE 05:02:04 10° SE
PAYLOAD B 4.3 04:55:24 10° NNE 05:01:03 81° ESE 05:06:40 10° SSW
Nadezhda 1 Rocket 3.8 04:57:11 10° SSW 05:03:14 67° WNW 05:09:18 10° N
NOSS 8 (E) 4.1 05:03:00 64° SSW 05:03:24 79° SE 05:06:30 10° NE
STARLINK-80 4.1 05:01:50 29° SSW 05:03:26 51° SSE 05:07:08 10° ENE
Cosmos 1538 Rocket 4.3 04:58:45 10° SSW 05:04:04 69° ESE 05:09:22 10° NNE
Abrixas rocket 2.1 05:05:22 62° S 05:05:22 62° S 05:08:23 10° E
MOS 1-B 4.2 05:02:11 10° NNE 05:07:59 77° WNW 05:13:46 10° SSW
CZ-3 R/B 4.2 04:57:09 10° WSW 05:08:17 20° SSW 05:13:40 10° SSE
Orbus 7S? 3.2 05:07:30 51° WNW 05:08:18 90° NE 05:13:48 10° SE
METEOR-M 4.0 05:05:28 10° N 05:10:49 70° WNW 05:16:08 10° SSW
Meteor 1-21 Rocket 4.2 05:06:04 10° NNW 05:11:54 72° W 05:17:46 10° S
Lacrosse 5 rocket 2.1 05:10:54 35° WNW 05:12:06 43° NNW 05:16:25 10° NE
CZ-4B R/B 3.4 05:06:49 10° NNE 05:12:28 76° ESE 05:17:58 10° S
H-2A R/B 4.1 05:11:07 10° NNE 05:14:52 42° E 05:18:35 10° S
Cosmos 1758 3.6 05:13:20 10° SSW 05:17:10 43° WNW 05:21:02 10° N
Cosmos 2218 Rocket 4.3 05:12:10 10° N 05:18:37 73° ENE 05:24:58 10° SSE
Cosmos 1602 Rocket 4.4 05:21:44 28° WSW 05:21:44 28° WSW 05:24:58 10° SSW
NOAA 6 4.0 05:18:30 10° NNE 05:23:43 82° WNW 05:28:54 10° SSW
Timation 1 Rocket 4.5 05:19:29 12° NNW 05:25:12 77° ENE 05:31:13 10° SE
Cosmos 1953 2.3 05:21:24 10° SSW 05:25:24 62° WNW 05:29:28 10° N
NOSS 3-2 (C) 4.0 05:19:37 17° NW 05:25:38 86° SW 05:33:59 10° SE
Cosmos 44 Rocket 3.8 05:24:26 28° WNW 05:26:11 38° WSW 05:30:34 10° S
Cosmos 1980 Rocket 2.3 05:20:58 10° SSW 05:26:39 79° ESE 05:32:21 10° NNE
Cosmos 2154 Rocket 4.3 05:20:59 10° NNW 05:26:43 40° W 05:32:24 10° SSW
Cosmos 1703 3.5 05:22:44 10° N 05:26:44 73° E 05:30:40 10° SSE
Cosmos 1908 4.3 05:26:31 10° S 05:30:17 48° E 05:34:06 10° NNE
FENGYUN 3A 3.8 05:25:15 10° N 05:30:27 50° WNW 05:35:39 10° SW
Cosmos 2228 3.1 05:26:03 10° S 05:30:28 84° E 05:34:54 10° NNE
Okean O Rocket 1.5 05:26:00 10° N 05:30:28 68° WNW 05:34:53 10° SSW
NOSS 2-2 (C) 3.2 05:28:14 10° SW 05:31:52 84° SE 05:36:07 10° NE
Cosmos 1953 Rocket 3.5 05:27:48 10° NNW 05:32:17 78° W 05:36:41 10° S
SMAP 3.6 05:30:55 10° NNE 05:35:33 61° ESE 05:40:10 10° S
Cosmos 1697 Rocket 2.7 05:30:35 10° SW 05:36:06 56° NW 05:41:39 10° NNE
Envisat 4.5 05:32:04 10° NNE 05:36:54 41° E 05:41:40 10° SSE
Cosmos 1758 Rocket 3.9 05:33:39 10° NNW 05:37:46 42° W 05:41:54 10° SSW
Cosmos 2227 4.1 05:33:47 11° NNW 05:39:18 76° WSW 05:44:54 10° SSE
NOSS 2-2 (E) 3.2 05:39:33 10° SW 05:43:13 67° NW 05:47:37 10° NE
ATLAS 3B R/B 2.8 05:38:09 12° NW 05:44:22 76° NE 05:51:15 10° SE
CZ-2C R/B 4.4 05:42:25 10° ESE 05:46:57 30° ENE 05:51:34 10° N
Meteor 2-10 4.1 05:43:03 10° SSW 05:48:39 78° WNW 05:54:05 10° N
Cosmos 1726 2.1 05:45:53 10° SSW 05:49:31 58° WNW 05:53:09 10° N
NOSS 3-2 (A) 4.3 05:43:21 14° NW 05:49:40 52° WSW 05:57:40 10° SSE
STARLINK-26 4.2 05:46:41 10° SW 05:50:05 46° SSE 05:53:29 10° ENE
Cosmos 1959 Rocket 4.4 05:45:43 10° NNW 05:51:48 71° W 05:57:52 10° S
CZ-2C R/B 4.4 05:50:25 10° NNW 05:51:00 11° NW 05:51:00 11° NW
NOSS 8 (H) 4.3 05:49:46 10° WSW 05:52:44 53° NW 05:55:52 10° NE
Genesis I 3.6 05:49:34 13° NW 05:53:00 61° NE 05:56:48 10° SE
STARLINK-60 3.3 05:54:11 19° WNW 05:56:28 59° NNE 05:59:49 10° E
FALCON 9 DEB 3.5 05:54:43 18° WNW 05:57:08 54° N 06:00:36 10° E
Helios 1A Rocket 3.2 05:53:27 10° N 05:57:23 45° WNW 06:01:19 10° SW
Cosmos 2278 Rocket 4.4 05:54:57 10° N 05:58:16 16° NNE 06:01:36 10° ENE
Cosmos 2366 rocket 4.0 05:52:55 10° NNW 05:59:12 66° W 06:05:29 10° S
Cosmos 1470 4.3 05:57:26 10° WSW 06:00:06 17° WNW 06:02:47 10° NNW
Cosmos 2058 Rocket 3.0 05:55:57 10° S 06:00:22 83° W 06:04:48 10° N
Cosmos 1825 Rocket 4.5 06:01:05 10° NNW 06:04:42 26° W 06:08:18 10° SW
CORIOLIS 4.2 06:01:07 10° NNE 06:06:30 86° ESE 06:11:52 10° SSW
STARLINK-29 3.5 06:03:50 15° WNW 06:06:39 55° N 06:10:08 10° E
STARLINK-52 3.5 06:03:58 15° WNW 06:06:46 53° N 06:10:13 10° E
Cosmos 2344 3.8 05:59:39 10° WSW 06:07:03 59° NW 06:15:42 10° NE
BREEZE M DEB (TANK) 3.8 06:05:12 10° SW 06:08:04 58° SSE 06:15:25 10° ENE
Cosmos 1328 4.3 06:05:09 10° NNW 06:08:53 38° W 06:12:35 10° SSW
Cosmos 1624 Rocket 4.0 06:04:23 10° NNW 06:09:39 89° ENE 06:14:51 10° SSE
ALOS 3.5 06:07:33 10° NNW 06:10:56 20° WNW 06:14:19 10° WSW
CENTAUR R/B 3.3 06:03:54 10° NW 06:11:46 67° SW 06:20:22 10° SSE
Cosmos 2322 Rocket 3.2 06:07:59 10° S 06:13:27 52° ESE 06:18:58 10° NE
Cosmos 158 Rocket 4.5 06:10:47 10° S 06:15:35 62° ESE 06:20:27 10° NNE
ATLAS 2AS CENTAUR R/B 3.3 06:09:16 10° SW 06:17:17 82° SE 06:25:15 10° NE
NOAA 12 4.2 06:12:43 10° NNE 06:18:02 89° ESE 06:23:21 10° SSW
Elektron 3 4.2 06:15:32 10° SW 06:20:37 76° NW 06:23:40 10° NE
COSMOS 2455 2.9 06:16:02 10° SW 06:22:01 65° NW 06:28:02 10° NNE
IRS-1C Rocket 4.1 06:16:51 10° N 06:22:06 67° WNW 06:27:19 10° SSW
ADEOS Rocket 3.5 06:18:08 10° SSW 06:23:02 33° W 06:28:04 10° NNW
AQUARIUS 4.3 06:19:02 10° N 06:23:25 53° WNW 06:27:47 10° SW
Cosmos 2056 Rocket 3.6 06:18:13 10° NNW 06:23:39 75° WSW 06:29:04 10° SSE
Cosmos 2181 Rocket 4.3 06:20:34 10° SW 06:26:25 43° WNW 06:32:24 10° N
Cosmos 1606 Rocket 4.5 06:22:41 10° SW 06:26:30 27° WNW 06:30:19 10° N
Cosmos 2263 Rocket 2.6 06:22:14 10° NW 06:27:33 44° WSW 06:32:53 10° S
Cosmos 1726 Rocket 4.3 06:25:50 10° SW 06:29:48 31° WNW 06:33:46 10° N
Cosmos 923 Rocket 4.1 06:24:54 10° SW 06:30:03 55° WNW 06:35:18 10° NNE
SL-4 R/B 3.2 06:27:36 10° W 06:30:27 23° SW 06:33:14 10° SSE
STARLINK-43 3.6 06:29:25 10° W 06:33:05 55° N 06:36:45 10° ENE
Cosmos 2278 4.4 06:30:26 10° WSW 06:35:31 32° NW 06:40:37 10° NNE
